Voltar ao catálogo

GOES 4

AtivoMeteoGEO
NORAD 11964·PAYLOAD·🇺🇸 United States

Lançado Sep 9, 1980 de Cape Canaveral Space Force Station

Loading…

TLE

AtualizadoSource: Space-Track

Época: Sep 14, 2026, 01:32 UTC

1 11964U 80074A   26257.06447670 -.00000217  00000-0  00000-0 0  9997
2 11964   7.7968 302.3834 0031018 111.8584 263.5873  0.99230602128325

Acompanhe GOES 4 em tempo real com AllMySat

Download on the App Store